Weather past 2 weeks in Philipsburg, Netherlands Antilles, Sint Maarten

Now
84 °F

Scattered clouds.


Feels Like: 88 °F
Forecast: 78 / 83 °F
Wind: 15 mph from East

Location: Juliana Airport - Saint Maarten

Current Time: Dec 20, 2014 at 1:34:29 PM

Latest Report: Dec 20, 2014 at 1:00 PM


Visibility: N/A

Pressure: 30.01 "Hg

Humidity: 62%

Dew point: 70 °F

Location of PhilipsburgLocation

Historic Weather in Philipsburg — Graph

°F

Philipsburg temperature yesterday

Maximum temperature yesterday: 84 °F (at 3:00 PM)
Minimum temperature yesterday: 77 °F (at 4:00 AM)
Average temperature yesterday: 80 °F

Past Weeks' High & Low Weather Summary

 TemperatureHumidityPressure
High86 °F (Dec 14, 12:00 PM)94% (Dec 16, 6:00 PM)30.07 "Hg (Dec 16, 6:00 PM)
Low73 °F (Dec 18, 4:00 AM)62% (Dec 7, 9:00 AM)29.80 "Hg (Dec 6, 2:00 PM)
Average80 °F74%29.95 "Hg
* Reported Dec 5 12:00 Noon — Dec 20 12:00 Noon, Philipsburg, Weather by CustomWeather, © 2014

Note: Actual official high and low records may vary slightly from our data, if they occured in-between our weather recording intervals... More about our weather records

Advertising

Philipsburg weather history for previous 24 hours

 ConditionsComfort  
Time TempWeatherWind HumidityBarometerVisibility
12:00 PM
Dec 20
82 °FScattered clouds.15 mph62%30.04 "HgN/A
11:00 AM84 °FScattered clouds.12 mph62%30.04 "HgN/A
10:00 AM82 °FScattered clouds.14 mph66%30.04 "HgN/A
9:00 AM81 °FScattered clouds.10 mph70%30.04 "HgN/A
8:00 AM81 °FScattered clouds.10 mph70%30.01 "HgN/A
7:00 AM79 °FPassing clouds.8 mph74%29.98 "HgN/A
6:00 AM79 °FPassing clouds.8 mph74%29.98 "HgN/A
5:00 AM79 °FPassing clouds.9 mph70%29.95 "HgN/A
3:00 AM77 °FPassing clouds.9 mph74%29.95 "HgN/A
2:00 AM79 °FPassing clouds.9 mph70%29.98 "HgN/A
1:00 AM79 °FPassing clouds.8 mph70%29.98 "HgN/A
12:00 AM79 °FPassing clouds.8 mph70%30.01 "HgN/A
11:00 PM
Dec 19
79 °FPassing clouds.9 mph70%30.01 "HgN/A
10:00 PM79 °FPassing clouds.10 mph70%30.01 "HgN/A
9:00 PM79 °FPassing clouds.9 mph70%30.01 "HgN/A
8:00 PM79 °FPassing clouds.9 mph70%29.98 "HgN/A
7:00 PM79 °FPassing clouds.9 mph70%29.98 "HgN/A
6:00 PM79 °FPassing clouds.9 mph74%29.95 "HgN/A
5:00 PM81 °FScattered showers. Scattered clouds.7 mph70%29.95 "HgN/A
4:00 PM82 °FPartly sunny.10 mph66%29.92 "HgN/A
3:00 PM84 °FScattered clouds.10 mph62%29.92 "HgN/A
2:00 PM82 °FPassing clouds.14 mph66%29.95 "HgN/A
Weather by CustomWeather, © 2014

See weather overviewHow to use our weather pages